Time,TemperatureF,DewpointF,PressureIn,WindDirection,WindDirectionDegrees,WindSpeedMPH,WindSpeedGustMPH,Humidity,HourlyPrecipIn,Conditions,Clouds,dailyrainin,SoftwareType,DateUTC
2013-02-25 00:00:00,23.5,21.0,30.13,West,269,0.0,0.0,90,0.00,,,0.00,WeatherCatV1.10B1784,2013-02-25 05:00:00,
2013-02-25 00:05:00,23.5,21.3,30.13,WSW,257,2.0,2.0,91,0.00,,,0.00,WeatherCatV1.10B1784,2013-02-25 05:05:00,
2013-02-25 00:10:00,24.7,23.0,30.13,WSW,253,1.0,2.0,93,0.00,,,0.00,WeatherCatV1.10B1784,2013-02-25 05:10:00,
2013-02-25 00:15:00,25.4,23.7,30.13,WSW,253,0.0,0.0,93,0.00,,,0.00,WeatherCatV1.10B1784,2013-02-25 05:15:00,
2013-02-25 00:20:00,25.6,23.3,30.13,WSW,253,0.0,0.0,91,0.00,,,0.00,WeatherCatV1.10B1784,2013-02-25 05:20:00,
2013-02-25 00:22:00,25.4,22.6,30.13,WSW,253,0.0,0.0,89,0.00,,,0.00,WeatherCatV1.10B1784,2013-02-25 05:22:00,
2013-02-25 00:27:00,24.8,21.5,30.13,WSW,253,0.0,0.0,87,0.00,,,0.00,WeatherCatV1.10B1784,2013-02-25 05:27:00,
2013-02-25 00:32:00,24.4,21.4,30.13,WSW,253,0.0,0.0,88,0.00,,,0.00,WeatherCatV1.10B1784,2013-02-25 05:32:00,
2013-02-25 00:37:00,24.4,21.9,30.13,WSW,254,1.0,2.0,90,0.00,,,0.00,WeatherCatV1.10B1784,2013-02-25 05:37:00,
2013-02-25 00:42:00,24.9,22.7,30.14,WSW,254,0.0,1.0,91,0.00,,,0.00,WeatherCatV1.10B1784,2013-02-25 05:42:00,
2013-02-25 00:47:00,24.5,21.5,30.14,WSW,254,0.0,2.0,88,0.00,,,0.00,WeatherCatV1.10B1784,2013-02-25 05:47:00,
2013-02-25 00:52:00,24.3,21.5,30.14,WSW,254,0.0,0.0,89,0.00,,,0.00,WeatherCatV1.10B1784,2013-02-25 05:52:00,
2013-02-25 00:53:00,24.3,21.3,30.14,WSW,254,0.0,0.0,88,0.00,,,0.00,WeatherCatV1.10B1784,2013-02-25 05:53:00,
2013-02-25 00:58:00,23.7,20.4,30.13,WSW,254,0.0,0.0,87,0.00,,,0.00,WeatherCatV1.10B1784,2013-02-25 05:58:00,
2013-02-25 01:03:00,23.4,20.4,30.13,WSW,254,0.0,0.0,88,0.00,,,0.00,WeatherCatV1.10B1784,2013-02-25 06:03:00,
2013-02-25 01:08:00,23.1,20.4,30.13,WSW,254,0.0,0.0,89,0.00,,,0.00,WeatherCatV1.10B1784,2013-02-25 06:08:00,
2013-02-25 01:13:00,22.9,20.2,30.14,WSW,254,0.0,0.0,89,0.00,,,0.00,WeatherCatV1.10B1784,2013-02-25 06:13:00,
2013-02-25 01:18:00,22.7,20.0,30.14,WSW,254,0.0,0.0,89,0.00,,,0.00,WeatherCatV1.10B1784,2013-02-25 06:18:00,
2013-02-25 01:23:00,22.8,20.3,30.14,WSW,254,0.0,0.0,90,0.00,,,0.00,WeatherCatV1.10B1784,2013-02-25 06:23:00,
2013-02-25 01:28:00,22.9,20.7,30.14,WSW,254,0.0,0.0,91,0.00,,,0.00,WeatherCatV1.10B1784,2013-02-25 06:28:00,
2013-02-25 01:33:00,22.9,20.4,30.14,WSW,254,0.0,0.0,90,0.00,,,0.00,WeatherCatV1.10B1784,2013-02-25 06:33:00,
2013-02-25 01:38:00,22.9,20.4,30.14,WSW,254,0.0,0.0,90,0.00,,,0.00,WeatherCatV1.10B1784,2013-02-25 06:38:00,
2013-02-25 01:43:00,22.7,20.0,30.14,WSW,254,0.0,0.0,89,0.00,,,0.00,WeatherCatV1.10B1784,2013-02-25 06:43:00,
2013-02-25 01:48:00,22.6,19.9,30.14,WSW,254,0.0,0.0,89,0.00,,,0.00,WeatherCatV1.10B1784,2013-02-25 06:48:00,
2013-02-25 01:53:00,22.4,19.7,30.14,WSW,254,0.0,0.0,89,0.00,,,0.00,WeatherCatV1.10B1784,2013-02-25 06:53:00,
2013-02-25 01:58:00,22.2,19.2,30.15,WSW,254,0.0,0.0,88,0.00,,,0.00,WeatherCatV1.10B1784,2013-02-25 06:58:00,
2013-02-25 02:03:00,22.1,19.4,30.15,WSW,254,0.0,0.0,89,0.00,,,0.00,WeatherCatV1.10B1784,2013-02-25 07:03:00,
2013-02-25 02:08:00,22.3,20.1,30.15,WSW,254,0.0,0.0,91,0.00,,,0.00,WeatherCatV1.10B1784,2013-02-25 07:08:00,
2013-02-25 02:13:00,22.5,20.3,30.14,WSW,254,0.0,0.0,91,0.00,,,0.00,WeatherCatV1.10B1784,2013-02-25 07:13:00,
2013-02-25 02:18:00,22.3,19.6,30.14,WSW,254,0.0,0.0,89,0.00,,,0.00,WeatherCatV1.10B1784,2013-02-25 07:18:00,
2013-02-25 02:23:00,22.2,19.7,30.14,WSW,254,0.0,0.0,90,0.00,,,0.00,WeatherCatV1.10B1784,2013-02-25 07:23:00,
2013-02-25 02:28:00,22.1,19.6,30.14,WSW,254,0.0,0.0,90,0.00,,,0.00,WeatherCatV1.10B1784,2013-02-25 07:28:00,
2013-02-25 02:32:00,22.0,19.3,30.14,WSW,254,0.0,0.0,89,0.00,,,0.00,WeatherCatV1.10B1784,2013-02-25 07:32:00,
2013-02-25 02:37:00,22.1,19.6,30.14,WSW,254,0.0,0.0,90,0.00,,,0.00,WeatherCatV1.10B1784,2013-02-25 07:37:00,
2013-02-25 02:42:00,22.1,19.6,30.14,WSW,254,0.0,0.0,90,0.00,,,0.00,WeatherCatV1.10B1784,2013-02-25 07:42:00,
2013-02-25 02:47:00,22.1,19.4,30.14,WSW,254,0.0,0.0,89,0.00,,,0.00,WeatherCatV1.10B1784,2013-02-25 07:47:00,
2013-02-25 02:52:00,22.1,19.4,30.14,WSW,254,0.0,0.0,89,0.00,,,0.00,WeatherCatV1.10B1784,2013-02-25 07:52:00,
2013-02-25 02:57:00,22.1,19.4,30.14,WSW,254,0.0,0.0,89,0.00,,,0.00,WeatherCatV1.10B1784,2013-02-25 07:57:00,
2013-02-25 03:02:00,22.1,19.4,30.14,WSW,254,0.0,0.0,89,0.00,,,0.00,WeatherCatV1.10B1784,2013-02-25 08:02:00,
2013-02-25 03:07:00,22.1,19.4,30.14,WSW,254,0.0,0.0,89,0.00,,,0.00,WeatherCatV1.10B1784,2013-02-25 08:07:00,
2013-02-25 03:12:00,22.0,19.3,30.14,WSW,254,0.0,0.0,89,0.00,,,0.00,WeatherCatV1.10B1784,2013-02-25 08:12:00,
2013-02-25 03:17:00,21.8,19.1,30.14,WSW,254,0.0,0.0,89,0.00,,,0.00,WeatherCatV1.10B1784,2013-02-25 08:17:00,
2013-02-25 03:22:00,21.6,18.9,30.14,WSW,254,0.0,0.0,89,0.00,,,0.00,WeatherCatV1.10B1784,2013-02-25 08:22:00,
2013-02-25 03:27:00,21.4,18.7,30.14,WSW,254,0.0,0.0,89,0.00,,,0.00,WeatherCatV1.10B1784,2013-02-25 08:27:00,
2013-02-25 03:32:00,21.2,18.5,30.14,WSW,254,0.0,0.0,89,0.00,,,0.00,WeatherCatV1.10B1784,2013-02-25 08:32:00,
2013-02-25 03:37:00,21.1,18.6,30.14,WSW,254,0.0,1.0,90,0.00,,,0.00,WeatherCatV1.10B1784,2013-02-25 08:37:00,
2013-02-25 03:42:00,20.6,17.9,30.14,WSW,254,0.0,0.0,89,0.00,,,0.00,WeatherCatV1.10B1784,2013-02-25 08:42:00,
2013-02-25 03:47:00,20.1,17.4,30.14,WSW,254,0.0,0.0,89,0.00,,,0.00,WeatherCatV1.10B1784,2013-02-25 08:47:00,
2013-02-25 03:52:00,20.0,17.5,30.14,WSW,254,0.0,0.0,90,0.00,,,0.00,WeatherCatV1.10B1784,2013-02-25 08:52:00,
2013-02-25 03:57:00,20.1,17.6,30.14,WSW,254,0.0,0.0,90,0.00,,,0.00,WeatherCatV1.10B1784,2013-02-25 08:57:00,
2013-02-25 04:02:00,20.2,17.7,30.14,WSW,254,0.0,0.0,90,0.00,,,0.00,WeatherCatV1.10B1784,2013-02-25 09:02:00,
2013-02-25 04:07:00,20.3,17.8,30.14,WSW,254,0.0,0.0,90,0.00,,,0.00,WeatherCatV1.10B1784,2013-02-25 09:07:00,
2013-02-25 04:12:00,20.3,17.8,30.14,WSW,254,0.0,0.0,90,0.00,,,0.00,WeatherCatV1.10B1784,2013-02-25 09:12:00,
2013-02-25 04:17:00,20.4,17.7,30.14,WSW,254,0.0,0.0,89,0.00,,,0.00,WeatherCatV1.10B1784,2013-02-25 09:17:00,
2013-02-25 04:22:00,20.4,17.9,30.14,WSW,254,0.0,0.0,90,0.00,,,0.00,WeatherCatV1.10B1784,2013-02-25 09:22:00,
2013-02-25 04:27:00,20.5,18.0,30.14,WSW,254,0.0,0.0,90,0.00,,,0.00,WeatherCatV1.10B1784,2013-02-25 09:27:00,
2013-02-25 04:32:00,20.4,17.9,30.14,WSW,254,0.0,0.0,90,0.00,,,0.00,WeatherCatV1.10B1784,2013-02-25 09:32:00,
2013-02-25 04:37:00,20.4,17.9,30.14,WSW,254,0.0,0.0,90,0.00,,,0.00,WeatherCatV1.10B1784,2013-02-25 09:37:00,
2013-02-25 04:42:00,20.3,17.8,30.14,WSW,254,0.0,0.0,90,0.00,,,0.00,WeatherCatV1.10B1784,2013-02-25 09:42:00,
2013-02-25 04:47:00,20.2,17.5,30.14,WSW,254,0.0,0.0,89,0.00,,,0.00,WeatherCatV1.10B1784,2013-02-25 09:47:00,
2013-02-25 04:52:00,20.1,17.4,30.14,WSW,254,0.0,0.0,89,0.00,,,0.00,WeatherCatV1.10B1784,2013-02-25 09:52:00,
2013-02-25 04:57:00,20.1,17.1,30.14,WSW,254,0.0,0.0,88,0.00,,,0.00,WeatherCatV1.10B1784,2013-02-25 09:57:00,
2013-02-25 05:02:00,20.0,17.0,30.14,WSW,254,0.0,0.0,88,0.00,,,0.00,WeatherCatV1.10B1784,2013-02-25 10:02:00,
2013-02-25 05:07:00,19.9,16.9,30.14,WSW,254,0.0,0.0,88,0.00,,,0.00,WeatherCatV1.10B1784,2013-02-25 10:07:00,
2013-02-25 05:12:00,20.0,17.0,30.14,WSW,254,0.0,0.0,88,0.00,,,0.00,WeatherCatV1.10B1784,2013-02-25 10:12:00,
2013-02-25 05:17:00,20.1,17.4,30.14,WSW,254,0.0,0.0,89,0.00,,,0.00,WeatherCatV1.10B1784,2013-02-25 10:17:00,
2013-02-25 05:22:00,20.2,17.5,30.14,WSW,254,0.0,0.0,89,0.00,,,0.00,WeatherCatV1.10B1784,2013-02-25 10:22:00,
2013-02-25 05:27:00,20.2,17.2,30.14,WSW,254,0.0,0.0,88,0.00,,,0.00,WeatherCatV1.10B1784,2013-02-25 10:27:00,
2013-02-25 05:32:00,19.9,16.9,30.14,WSW,254,0.0,0.0,88,0.00,,,0.00,WeatherCatV1.10B1784,2013-02-25 10:32:00,
2013-02-25 05:37:00,19.6,16.4,30.14,WSW,254,0.0,0.0,87,0.00,,,0.00,WeatherCatV1.10B1784,2013-02-25 10:37:00,
2013-02-25 05:42:00,19.3,16.1,30.14,WSW,254,0.0,0.0,87,0.00,,,0.00,WeatherCatV1.10B1784,2013-02-25 10:42:00,
2013-02-25 05:47:00,18.8,15.6,30.15,WSW,254,0.0,0.0,87,0.00,,,0.00,WeatherCatV1.10B1784,2013-02-25 10:47:00,
2013-02-25 05:52:00,18.4,15.2,30.15,WSW,254,0.0,0.0,87,0.00,,,0.00,WeatherCatV1.10B1784,2013-02-25 10:52:00,
2013-02-25 05:57:00,17.9,14.7,30.15,WSW,254,0.0,0.0,87,0.00,,,0.00,WeatherCatV1.10B1784,2013-02-25 10:57:00,
2013-02-25 06:02:00,17.2,14.0,30.15,WSW,254,0.0,0.0,87,0.00,,,0.00,WeatherCatV1.10B1784,2013-02-25 11:02:00,
2013-02-25 06:07:00,16.9,14.0,30.16,WSW,254,0.0,0.0,88,0.00,,,0.00,WeatherCatV1.10B1784,2013-02-25 11:07:00,
2013-02-25 06:12:00,16.5,13.6,30.16,WSW,254,0.0,0.0,88,0.00,,,0.00,WeatherCatV1.10B1784,2013-02-25 11:12:00,
2013-02-25 06:17:00,16.3,13.6,30.17,WSW,254,0.0,0.0,89,0.00,,,0.00,WeatherCatV1.10B1784,2013-02-25 11:17:00,
2013-02-25 06:22:00,16.2,13.5,30.17,WSW,254,0.0,0.0,89,0.00,,,0.00,WeatherCatV1.10B1784,2013-02-25 11:22:00,
2013-02-25 06:27:00,16.1,13.4,30.18,WSW,254,0.0,0.0,89,0.00,,,0.00,WeatherCatV1.10B1784,2013-02-25 11:27:00,
2013-02-25 06:32:00,16.1,13.4,30.18,WSW,254,0.0,0.0,89,0.00,,,0.00,WeatherCatV1.10B1784,2013-02-25 11:32:00,
2013-02-25 06:37:00,16.2,13.5,30.17,WSW,254,0.0,0.0,89,0.00,,,0.00,WeatherCatV1.10B1784,2013-02-25 11:37:00,
2013-02-25 06:42:00,16.1,13.2,30.18,WSW,254,0.0,0.0,88,0.00,,,0.00,WeatherCatV1.10B1784,2013-02-25 11:42:00,
2013-02-25 06:47:00,16.1,13.4,30.18,WSW,254,0.0,0.0,89,0.00,,,0.00,WeatherCatV1.10B1784,2013-02-25 11:47:00,
2013-02-25 06:52:00,16.1,13.2,30.18,WSW,254,0.0,0.0,88,0.00,,,0.00,WeatherCatV1.10B1784,2013-02-25 11:52:00,
2013-02-25 06:57:00,15.9,13.0,30.18,WSW,254,0.0,0.0,88,0.00,,,0.00,WeatherCatV1.10B1784,2013-02-25 11:57:00,
2013-02-25 07:02:00,15.6,12.7,30.18,WSW,254,0.0,0.0,88,0.00,,,0.00,WeatherCatV1.10B1784,2013-02-25 12:02:00,
2013-02-25 07:07:00,15.4,12.5,30.18,WSW,254,0.0,0.0,88,0.00,,,0.00,WeatherCatV1.10B1784,2013-02-25 12:07:00,
2013-02-25 07:12:00,15.3,12.4,30.18,WSW,254,0.0,0.0,88,0.00,,,0.00,WeatherCatV1.10B1784,2013-02-25 12:12:00,
2013-02-25 07:17:00,15.3,12.4,30.18,WSW,254,0.0,0.0,88,0.00,,,0.00,WeatherCatV1.10B1784,2013-02-25 12:17:00,
2013-02-25 07:22:00,15.3,12.7,30.18,WSW,254,0.0,0.0,89,0.00,,,0.00,WeatherCatV1.10B1784,2013-02-25 12:22:00,
2013-02-25 07:27:00,15.5,12.8,30.18,WSW,254,0.0,0.0,89,0.00,,,0.00,WeatherCatV1.10B1784,2013-02-25 12:27:00,
2013-02-25 07:32:00,15.7,13.0,30.19,WSW,254,0.0,0.0,89,0.00,,,0.00,WeatherCatV1.10B1784,2013-02-25 12:32:00,
2013-02-25 07:37:00,15.7,12.8,30.19,WSW,254,0.0,0.0,88,0.00,,,0.00,WeatherCatV1.10B1784,2013-02-25 12:37:00,
2013-02-25 07:42:00,15.7,12.8,30.19,WSW,254,0.0,0.0,88,0.00,,,0.00,WeatherCatV1.10B1784,2013-02-25 12:42:00,
2013-02-25 07:47:00,15.9,13.2,30.19,WSW,254,0.0,0.0,89,0.00,,,0.00,WeatherCatV1.10B1784,2013-02-25 12:47:00,
2013-02-25 07:52:00,16.2,13.5,30.19,WSW,254,0.0,0.0,89,0.00,,,0.00,WeatherCatV1.10B1784,2013-02-25 12:52:00,
2013-02-25 07:57:00,16.6,13.7,30.20,WSW,254,0.0,0.0,88,0.00,,,0.00,WeatherCatV1.10B1784,2013-02-25 12:57:00,
2013-02-25 08:02:00,17.0,14.1,30.20,WSW,254,0.0,0.0,88,0.00,,,0.00,WeatherCatV1.10B1784,2013-02-25 13:02:00,
2013-02-25 08:07:00,17.5,14.6,30.20,WSW,254,0.0,0.0,88,0.00,,,0.00,WeatherCatV1.10B1784,2013-02-25 13:07:00,
2013-02-25 08:12:00,18.2,15.5,30.20,WSW,254,0.0,0.0,89,0.00,,,0.00,WeatherCatV1.10B1784,2013-02-25 13:12:00,
2013-02-25 08:17:00,19.1,16.7,30.20,WSW,254,0.0,0.0,90,0.00,,,0.00,WeatherCatV1.10B1784,2013-02-25 13:17:00,
2013-02-25 08:22:00,20.4,17.9,30.20,WSW,254,0.0,0.0,90,0.00,,,0.00,WeatherCatV1.10B1784,2013-02-25 13:22:00,
2013-02-25 08:27:00,21.8,19.6,30.20,WSW,254,0.0,0.0,91,0.00,,,0.00,WeatherCatV1.10B1784,2013-02-25 13:27:00,
2013-02-25 08:32:00,22.7,19.7,30.20,WSW,254,0.0,0.0,88,0.00,,,0.00,WeatherCatV1.10B1784,2013-02-25 13:32:00,
2013-02-25 08:37:00,23.1,20.1,30.20,WSW,254,0.0,0.0,88,0.00,,,0.00,WeatherCatV1.10B1784,2013-02-25 13:37:00,
2013-02-25 08:42:00,23.9,21.1,30.20,WSW,254,0.0,0.0,89,0.00,,,0.00,WeatherCatV1.10B1784,2013-02-25 13:42:00,
2013-02-25 08:47:00,24.7,21.9,30.21,WSW,254,0.0,0.0,89,0.00,,,0.00,WeatherCatV1.10B1784,2013-02-25 13:47:00,
2013-02-25 08:52:00,25.5,22.7,30.21,WSW,254,0.0,0.0,89,0.00,,,0.00,WeatherCatV1.10B1784,2013-02-25 13:52:00,
2013-02-25 08:57:00,26.3,23.5,30.20,WSW,254,0.0,0.0,89,0.00,,,0.00,WeatherCatV1.10B1784,2013-02-25 13:57:00,
2013-02-25 09:02:00,27.8,25.3,30.21,WSW,254,0.0,0.0,90,0.00,,,0.00,WeatherCatV1.10B1784,2013-02-25 14:02:00,
2013-02-25 09:07:00,28.7,25.3,30.20,WSW,254,2.0,3.0,87,0.00,,,0.00,WeatherCatV1.10B1784,2013-02-25 14:07:00,
2013-02-25 09:12:00,28.7,25.3,30.20,West,259,1.0,3.0,87,0.00,,,0.00,WeatherCatV1.10B1784,2013-02-25 14:12:00,
2013-02-25 09:17:00,28.6,25.2,30.20,West,259,2.0,2.0,87,0.00,,,0.00,WeatherCatV1.10B1784,2013-02-25 14:17:00,
2013-02-25 09:22:00,28.6,25.5,30.20,West,259,2.0,3.0,88,0.00,,,0.00,WeatherCatV1.10B1784,2013-02-25 14:22:00,
2013-02-25 09:27:00,28.8,25.7,30.19,West,259,0.0,1.0,88,0.00,,,0.00,WeatherCatV1.10B1784,2013-02-25 14:27:00,
2013-02-25 09:32:00,29.3,26.2,30.19,West,259,0.0,2.0,88,0.00,,,0.00,WeatherCatV1.10B1784,2013-02-25 14:32:00,
2013-02-25 09:37:00,30.1,27.3,30.19,West,259,0.0,1.0,89,0.00,,,0.00,WeatherCatV1.10B1784,2013-02-25 14:37:00,
2013-02-25 09:42:00,31.1,27.7,30.19,West,259,0.0,0.0,87,0.00,,,0.00,WeatherCatV1.10B1784,2013-02-25 14:42:00,
2013-02-25 09:47:00,32.3,28.3,30.19,West,259,0.0,0.0,85,0.00,,,0.00,WeatherCatV1.10B1784,2013-02-25 14:47:00,
2013-02-25 09:52:00,33.2,28.6,30.19,West,259,0.0,0.0,83,0.00,,,0.00,WeatherCatV1.10B1784,2013-02-25 14:52:00,
2013-02-25 09:57:00,33.7,28.5,30.19,West,259,0.0,0.0,81,0.00,,,0.00,WeatherCatV1.10B1784,2013-02-25 14:57:00,
2013-02-25 10:02:00,34.2,28.7,30.18,West,259,0.0,1.0,80,0.00,,,0.00,WeatherCatV1.10B1784,2013-02-25 15:02:00,
2013-02-25 10:07:00,34.3,28.5,30.18,West,259,0.0,0.0,79,0.00,,,0.00,WeatherCatV1.10B1784,2013-02-25 15:07:00,
2013-02-25 10:12:00,35.1,28.6,30.18,West,259,0.0,0.0,77,0.00,,,0.00,WeatherCatV1.10B1784,2013-02-25 15:12:00,
2013-02-25 10:17:00,36.1,28.3,30.18,East,101,5.0,5.0,73,0.00,,,0.00,WeatherCatV1.10B1784,2013-02-25 15:17:00,
2013-02-25 10:22:00,35.8,25.9,30.18,East,81,3.0,7.0,67,0.00,,,0.00,WeatherCatV1.10B1784,2013-02-25 15:22:00,
2013-02-25 10:27:00,35.6,26.5,30.19,ESE,123,1.0,1.0,69,0.00,,,0.00,WeatherCatV1.10B1784,2013-02-25 15:27:00,
2013-02-25 10:32:00,36.1,26.6,30.18,SSE,156,0.0,0.0,68,0.00,,,0.00,WeatherCatV1.10B1784,2013-02-25 15:32:00,
2013-02-25 10:37:00,36.7,26.4,30.17,ENE,57,2.0,3.0,66,0.00,,,0.00,WeatherCatV1.10B1784,2013-02-25 15:37:00,
2013-02-25 10:42:00,37.1,26.8,30.17,SE,132,3.0,5.0,66,0.00,,,0.00,WeatherCatV1.10B1784,2013-02-25 15:42:00,
2013-02-25 10:47:00,36.9,25.1,30.17,ESE,103,1.0,6.0,62,0.00,,,0.00,WeatherCatV1.10B1784,2013-02-25 15:47:00,
2013-02-25 10:52:00,36.6,24.8,30.18,ESE,107,3.0,4.0,62,0.00,,,0.00,WeatherCatV1.10B1784,2013-02-25 15:52:00,
2013-02-25 10:57:00,36.5,25.1,30.18,South,184,1.0,5.0,63,0.00,,,0.00,WeatherCatV1.10B1784,2013-02-25 15:57:00,
2013-02-25 11:02:00,36.4,24.6,30.18,SE,136,4.0,7.0,62,0.00,,,0.00,WeatherCatV1.10B1784,2013-02-25 16:02:00,
2013-02-25 11:07:00,36.2,24.8,30.18,East,97,2.0,3.0,63,0.00,,,0.00,WeatherCatV1.10B1784,2013-02-25 16:07:00,
2013-02-25 11:12:00,36.4,25.0,30.18,SE,138,5.0,7.0,63,0.00,,,0.00,WeatherCatV1.10B1784,2013-02-25 16:12:00,
2013-02-25 11:17:00,36.1,24.7,30.18,SSE,155,6.0,7.0,63,0.00,,,0.00,WeatherCatV1.10B1784,2013-02-25 16:17:00,
2013-02-25 11:22:00,35.8,24.1,30.19,SSE,159,2.0,8.0,62,0.00,,,0.00,WeatherCatV1.10B1784,2013-02-25 16:22:00,
2013-02-25 11:27:00,36.1,24.7,30.18,ENE,64,3.0,6.0,63,0.00,,,0.00,WeatherCatV1.10B1784,2013-02-25 16:27:00,
2013-02-25 11:32:00,36.4,25.0,30.18,ESE,121,4.0,6.0,63,0.00,,,0.00,WeatherCatV1.10B1784,2013-02-25 16:32:00,
2013-02-25 11:37:00,37.0,26.0,30.18,South,169,7.0,8.0,64,0.00,,,0.00,WeatherCatV1.10B1784,2013-02-25 16:37:00,
2013-02-25 11:42:00,36.7,24.5,30.18,SSE,155,3.0,5.0,61,0.00,,,0.00,WeatherCatV1.10B1784,2013-02-25 16:42:00,
2013-02-25 11:47:00,36.6,25.2,30.19,South,171,1.0,4.0,63,0.00,,,0.00,WeatherCatV1.10B1784,2013-02-25 16:47:00,
2013-02-25 11:52:00,37.3,25.9,30.19,South,190,2.0,6.0,63,0.00,,,0.00,WeatherCatV1.10B1784,2013-02-25 16:52:00,
2013-02-25 11:57:00,37.8,26.0,30.18,SSW,201,7.0,7.0,62,0.00,,,0.00,WeatherCatV1.10B1784,2013-02-25 16:57:00,
2013-02-25 12:02:00,37.0,25.2,30.18,SSE,153,4.0,5.0,62,0.00,,,0.00,WeatherCatV1.10B1784,2013-02-25 17:02:00,
2013-02-25 12:07:00,37.1,25.7,30.18,SE,132,2.0,9.0,63,0.00,,,0.00,WeatherCatV1.10B1784,2013-02-25 17:07:00,
2013-02-25 12:12:00,37.3,25.9,30.17,ESE,116,5.0,8.0,63,0.00,,,0.00,WeatherCatV1.10B1784,2013-02-25 17:12:00,
2013-02-25 12:17:00,37.3,25.5,30.17,SSE,164,2.0,2.0,62,0.00,,,0.00,WeatherCatV1.10B1784,2013-02-25 17:17:00,
2013-02-25 12:22:00,37.9,26.1,30.17,South,177,1.0,2.0,62,0.00,,,0.00,WeatherCatV1.10B1784,2013-02-25 17:22:00,
2013-02-25 12:27:00,38.1,25.9,30.17,South,182,6.0,9.0,61,0.00,,,0.00,WeatherCatV1.10B1784,2013-02-25 17:27:00,
2013-02-25 12:32:00,37.7,25.1,30.17,ESE,120,4.0,5.0,60,0.00,,,0.00,WeatherCatV1.10B1784,2013-02-25 17:32:00,
2013-02-25 12:37:00,37.7,25.9,30.17,SSE,148,6.0,9.0,62,0.00,,,0.00,WeatherCatV1.10B1784,2013-02-25 17:37:00,
2013-02-25 12:42:00,37.4,26.0,30.17,ESE,108,7.0,7.0,63,0.00,,,0.00,WeatherCatV1.10B1784,2013-02-25 17:42:00,
2013-02-25 12:47:00,37.0,25.6,30.16,South,175,4.0,5.0,63,0.00,,,0.00,WeatherCatV1.10B1784,2013-02-25 17:47:00,
2013-02-25 12:52:00,37.0,25.2,30.16,SSE,161,2.0,3.0,62,0.00,,,0.00,WeatherCatV1.10B1784,2013-02-25 17:52:00,
2013-02-25 12:57:00,37.3,26.3,30.16,SE,126,2.0,8.0,64,0.00,,,0.00,WeatherCatV1.10B1784,2013-02-25 17:57:00,
2013-02-25 13:02:00,37.6,25.8,30.16,SE,146,4.0,6.0,62,0.00,,,0.00,WeatherCatV1.10B1784,2013-02-25 18:02:00,
2013-02-25 13:07:00,37.6,26.2,30.15,SE,126,1.0,8.0,63,0.00,,,0.00,WeatherCatV1.10B1784,2013-02-25 18:07:00,
2013-02-25 13:12:00,38.0,25.8,30.15,SW,227,3.0,5.0,61,0.00,,,0.00,WeatherCatV1.10B1784,2013-02-25 18:12:00,
2013-02-25 13:17:00,38.0,25.8,30.15,SSE,161,3.0,4.0,61,0.00,,,0.00,WeatherCatV1.10B1784,2013-02-25 18:17:00,
2013-02-25 13:22:00,38.1,26.6,30.15,SE,140,2.0,3.0,63,0.00,,,0.00,WeatherCatV1.10B1784,2013-02-25 18:22:00,
2013-02-25 13:27:00,38.2,26.3,30.14,South,177,3.0,7.0,62,0.00,,,0.00,WeatherCatV1.10B1784,2013-02-25 18:27:00,
2013-02-25 13:32:00,37.9,25.7,30.14,SSE,159,2.0,6.0,61,0.00,,,0.00,WeatherCatV1.10B1784,2013-02-25 18:32:00,
2013-02-25 13:37:00,38.0,25.8,30.13,ENE,78,3.0,7.0,61,0.00,,,0.00,WeatherCatV1.10B1784,2013-02-25 18:37:00,
2013-02-25 13:42:00,37.8,26.0,30.13,ENE,57,4.0,7.0,62,0.00,,,0.00,WeatherCatV1.10B1784,2013-02-25 18:42:00,
2013-02-25 13:47:00,37.5,25.7,30.13,SSE,161,4.0,6.0,62,0.00,,,0.00,WeatherCatV1.10B1784,2013-02-25 18:47:00,
2013-02-25 13:52:00,37.7,25.9,30.13,SE,143,4.0,8.0,62,0.00,,,0.00,WeatherCatV1.10B1784,2013-02-25 18:52:00,
2013-02-25 13:57:00,37.9,26.8,30.13,SE,138,9.0,9.0,64,0.00,,,0.00,WeatherCatV1.10B1784,2013-02-25 18:57:00,
2013-02-25 14:02:00,37.8,25.6,30.12,ESE,117,5.0,6.0,61,0.00,,,0.00,WeatherCatV1.10B1784,2013-02-25 19:02:00,
2013-02-25 14:07:00,37.7,26.3,30.12,East,101,3.0,6.0,63,0.00,,,0.00,WeatherCatV1.10B1784,2013-02-25 19:07:00,
2013-02-25 14:12:00,38.0,26.9,30.12,SSE,150,3.0,7.0,64,0.00,,,0.00,WeatherCatV1.10B1784,2013-02-25 19:12:00,
2013-02-25 14:17:00,38.6,27.1,30.12,SE,128,3.0,7.0,63,0.00,,,0.00,WeatherCatV1.10B1784,2013-02-25 19:17:00,
2013-02-25 14:22:00,38.6,27.1,30.12,East,101,3.0,5.0,63,0.00,,,0.00,WeatherCatV1.10B1784,2013-02-25 19:22:00,
2013-02-25 14:27:00,38.3,26.0,30.12,SE,145,4.0,8.0,61,0.00,,,0.00,WeatherCatV1.10B1784,2013-02-25 19:27:00,
2013-02-25 14:32:00,38.1,26.2,30.12,East,92,5.0,9.0,62,0.00,,,0.00,WeatherCatV1.10B1784,2013-02-25 19:32:00,
2013-02-25 14:37:00,38.0,26.2,30.12,East,80,6.0,9.0,62,0.00,,,0.00,WeatherCatV1.10B1784,2013-02-25 19:37:00,
2013-02-25 14:42:00,37.9,26.1,30.12,ESE,111,5.0,9.0,62,0.00,,,0.00,WeatherCatV1.10B1784,2013-02-25 19:42:00,
2013-02-25 14:47:00,37.9,26.1,30.12,SE,142,6.0,8.0,62,0.00,,,0.00,WeatherCatV1.10B1784,2013-02-25 19:47:00,
2013-02-25 14:52:00,37.8,25.6,30.12,SE,146,1.0,5.0,61,0.00,,,0.00,WeatherCatV1.10B1784,2013-02-25 19:52:00,
2013-02-25 14:57:00,38.2,25.6,30.12,SSE,147,0.0,2.0,60,0.00,,,0.00,WeatherCatV1.10B1784,2013-02-25 19:57:00,
2013-02-25 15:02:00,38.6,25.9,30.13,SSE,155,3.0,8.0,60,0.00,,,0.00,WeatherCatV1.10B1784,2013-02-25 20:02:00,
2013-02-25 15:07:00,37.9,25.7,30.12,SSE,157,1.0,2.0,61,0.00,,,0.00,WeatherCatV1.10B1784,2013-02-25 20:07:00,
2013-02-25 15:12:00,38.4,26.1,30.13,SSW,207,5.0,5.0,61,0.00,,,0.00,WeatherCatV1.10B1784,2013-02-25 20:12:00,
2013-02-25 15:17:00,39.0,27.1,30.12,South,175,6.0,6.0,62,0.00,,,0.00,WeatherCatV1.10B1784,2013-02-25 20:17:00,
2013-02-25 15:23:00,38.8,26.9,30.12,SE,144,1.0,1.0,62,0.00,,,0.00,WeatherCatV1.10B1784,2013-02-25 20:23:00,
2013-02-25 15:28:00,39.0,27.5,30.13,SE,134,2.0,7.0,63,0.00,,,0.00,WeatherCatV1.10B1784,2013-02-25 20:28:00,
2013-02-25 15:33:00,39.3,27.0,30.12,SSW,194,2.0,3.0,61,0.00,,,0.00,WeatherCatV1.10B1784,2013-02-25 20:33:00,
2013-02-25 15:38:00,39.6,27.7,30.12,South,169,2.0,4.0,62,0.00,,,0.00,WeatherCatV1.10B1784,2013-02-25 20:38:00,
2013-02-25 15:43:00,39.9,27.6,30.12,WSW,252,1.0,3.0,61,0.00,,,0.00,WeatherCatV1.10B1784,2013-02-25 20:43:00,
2013-02-25 15:48:00,39.9,28.0,30.12,ENE,78,4.0,8.0,62,0.00,,,0.00,WeatherCatV1.10B1784,2013-02-25 20:48:00,
2013-02-25 15:53:00,39.3,27.8,30.11,ESE,103,4.0,9.0,63,0.00,,,0.00,WeatherCatV1.10B1784,2013-02-25 20:53:00,
2013-02-25 15:58:00,38.8,28.1,30.11,ESE,104,4.0,7.0,65,0.00,,,0.00,WeatherCatV1.10B1784,2013-02-25 20:58:00,
2013-02-25 16:03:00,38.8,28.1,30.12,SE,127,1.0,5.0,65,0.00,,,0.00,WeatherCatV1.10B1784,2013-02-25 21:03:00,
2013-02-25 16:08:00,38.8,28.1,30.12,East,90,7.0,8.0,65,0.00,,,0.00,WeatherCatV1.10B1784,2013-02-25 21:08:00,
2013-02-25 16:13:00,38.5,27.8,30.11,SSE,163,3.0,3.0,65,0.00,,,0.00,WeatherCatV1.10B1784,2013-02-25 21:13:00,
2013-02-25 16:18:00,38.5,27.8,30.11,East,92,6.0,8.0,65,0.00,,,0.00,WeatherCatV1.10B1784,2013-02-25 21:18:00,
2013-02-25 16:23:00,38.3,28.0,30.11,East,88,6.0,7.0,66,0.00,,,0.00,WeatherCatV1.10B1784,2013-02-25 21:23:00,
2013-02-25 16:28:00,38.2,27.9,30.11,SE,132,7.0,10.0,66,0.00,,,0.00,WeatherCatV1.10B1784,2013-02-25 21:28:00,
2013-02-25 16:33:00,38.0,27.7,30.11,ESE,121,7.0,9.0,66,0.00,,,0.00,WeatherCatV1.10B1784,2013-02-25 21:33:00,
2013-02-25 16:38:00,37.9,27.6,30.11,ESE,112,3.0,4.0,66,0.00,,,0.00,WeatherCatV1.10B1784,2013-02-25 21:38:00,
2013-02-25 16:43:00,38.0,27.7,30.11,SE,124,5.0,6.0,66,0.00,,,0.00,WeatherCatV1.10B1784,2013-02-25 21:43:00,
2013-02-25 16:48:00,38.0,26.9,30.11,SE,124,4.0,6.0,64,0.00,,,0.00,WeatherCatV1.10B1784,2013-02-25 21:48:00,
2013-02-25 16:53:00,38.0,26.9,30.11,SE,136,5.0,6.0,64,0.00,,,0.00,WeatherCatV1.10B1784,2013-02-25 21:53:00,
2013-02-25 16:58:00,37.9,26.8,30.11,SE,142,2.0,8.0,64,0.00,,,0.00,WeatherCatV1.10B1784,2013-02-25 21:58:00,
2013-02-25 17:03:00,37.9,27.6,30.10,SE,141,2.0,3.0,66,0.00,,,0.00,WeatherCatV1.10B1784,2013-02-25 22:03:00,
2013-02-25 17:08:00,37.8,27.1,30.10,SE,132,5.0,7.0,65,0.00,,,0.00,WeatherCatV1.10B1784,2013-02-25 22:08:00,
2013-02-25 17:13:00,37.7,27.4,30.10,SE,132,5.0,5.0,66,0.00,,,0.00,WeatherCatV1.10B1784,2013-02-25 22:13:00,
2013-02-25 17:18:00,37.6,26.9,30.10,ESE,102,7.0,7.0,65,0.00,,,0.00,WeatherCatV1.10B1784,2013-02-25 22:18:00,
2013-02-25 17:23:00,37.4,27.1,30.10,East,101,5.0,8.0,66,0.00,,,0.00,WeatherCatV1.10B1784,2013-02-25 22:23:00,
2013-02-25 17:28:00,37.2,26.9,30.10,SE,130,3.0,7.0,66,0.00,,,0.00,WeatherCatV1.10B1784,2013-02-25 22:28:00,
2013-02-25 17:33:00,37.3,27.0,30.10,SE,126,2.0,5.0,66,0.00,,,0.00,WeatherCatV1.10B1784,2013-02-25 22:33:00,
2013-02-25 17:38:00,37.3,27.0,30.10,SE,132,4.0,5.0,66,0.00,,,0.00,WeatherCatV1.10B1784,2013-02-25 22:38:00,
2013-02-25 17:43:00,37.3,27.0,30.10,SE,131,4.0,6.0,66,0.00,,,0.00,WeatherCatV1.10B1784,2013-02-25 22:43:00,
2013-02-25 17:48:00,37.1,26.8,30.10,ESE,114,4.0,4.0,66,0.00,,,0.00,WeatherCatV1.10B1784,2013-02-25 22:48:00,
2013-02-25 17:53:00,37.0,27.1,30.10,East,95,1.0,3.0,67,0.00,,,0.00,WeatherCatV1.10B1784,2013-02-25 22:53:00,
2013-02-25 17:58:00,36.7,26.8,30.10,East,91,2.0,6.0,67,0.00,,,0.00,WeatherCatV1.10B1784,2013-02-25 22:58:00,
2013-02-25 18:03:00,36.5,27.0,30.10,SE,128,1.0,4.0,68,0.00,,,0.00,WeatherCatV1.10B1784,2013-02-25 23:03:00,
2013-02-25 18:08:00,36.2,26.7,30.10,ESE,107,2.0,2.0,68,0.00,,,0.00,WeatherCatV1.10B1784,2013-02-25 23:08:00,
2013-02-25 18:13:00,36.0,26.5,30.10,ESE,114,2.0,2.0,68,0.00,,,0.00,WeatherCatV1.10B1784,2013-02-25 23:13:00,
2013-02-25 18:18:00,35.7,26.5,30.10,ESE,123,2.0,2.0,69,0.00,,,0.00,WeatherCatV1.10B1784,2013-02-25 23:18:00,
2013-02-25 18:23:00,35.5,26.4,30.10,ESE,121,1.0,3.0,69,0.00,,,0.00,WeatherCatV1.10B1784,2013-02-25 23:23:00,
2013-02-25 18:28:00,35.2,26.1,30.10,ESE,121,2.0,3.0,69,0.00,,,0.00,WeatherCatV1.10B1784,2013-02-25 23:28:00,
2013-02-25 18:33:00,35.0,26.2,30.10,ESE,121,1.0,2.0,70,0.00,,,0.00,WeatherCatV1.10B1784,2013-02-25 23:33:00,
2013-02-25 18:38:00,34.6,25.8,30.10,ESE,119,3.0,5.0,70,0.00,,,0.00,WeatherCatV1.10B1784,2013-02-25 23:38:00,
2013-02-25 18:43:00,34.3,25.5,30.10,ESE,119,3.0,3.0,70,0.00,,,0.00,WeatherCatV1.10B1784,2013-02-25 23:43:00,
2013-02-25 18:48:00,34.1,25.7,30.11,ESE,116,1.0,4.0,71,0.00,,,0.00,WeatherCatV1.10B1784,2013-02-25 23:48:00,
2013-02-25 18:53:00,33.8,25.4,30.11,SE,132,1.0,3.0,71,0.00,,,0.00,WeatherCatV1.10B1784,2013-02-25 23:53:00,
2013-02-25 18:58:00,33.7,25.3,30.11,ESE,123,2.0,2.0,71,0.00,,,0.00,WeatherCatV1.10B1784,2013-02-25 23:58:00,
2013-02-25 19:03:00,33.5,25.1,30.11,ESE,121,0.0,2.0,71,0.00,,,0.00,WeatherCatV1.10B1784,2013-02-26 00:03:00,
2013-02-25 19:08:00,33.3,24.9,30.11,ESE,123,1.0,3.0,71,0.00,,,0.00,WeatherCatV1.10B1784,2013-02-26 00:08:00,
2013-02-25 19:13:00,33.2,25.2,30.11,SE,132,0.0,2.0,72,0.00,,,0.00,WeatherCatV1.10B1784,2013-02-26 00:13:00,
2013-02-25 19:18:00,33.1,25.1,30.12,SE,134,3.0,5.0,72,0.00,,,0.00,WeatherCatV1.10B1784,2013-02-26 00:18:00,
2013-02-25 19:23:00,33.0,25.0,30.12,ESE,120,1.0,4.0,72,0.00,,,0.00,WeatherCatV1.10B1784,2013-02-26 00:23:00,
2013-02-25 19:28:00,32.8,24.4,30.12,ESE,109,2.0,3.0,71,0.00,,,0.00,WeatherCatV1.10B1784,2013-02-26 00:28:00,
2013-02-25 19:33:00,32.6,24.6,30.12,ESE,121,2.0,2.0,72,0.00,,,0.00,WeatherCatV1.10B1784,2013-02-26 00:33:00,
2013-02-25 19:38:00,32.5,24.5,30.12,ESE,106,2.0,4.0,72,0.00,,,0.00,WeatherCatV1.10B1784,2013-02-26 00:38:00,
2013-02-25 19:43:00,32.5,24.5,30.12,ESE,123,2.0,3.0,72,0.00,,,0.00,WeatherCatV1.10B1784,2013-02-26 00:43:00,
2013-02-25 19:48:00,32.4,24.4,30.12,SE,126,1.0,3.0,72,0.00,,,0.00,WeatherCatV1.10B1784,2013-02-26 00:48:00,
2013-02-25 19:53:00,32.2,24.2,30.12,ESE,111,1.0,3.0,72,0.00,,,0.00,WeatherCatV1.10B1784,2013-02-26 00:53:00,
2013-02-25 19:58:00,32.0,24.0,30.11,East,99,2.0,5.0,72,0.00,,,0.00,WeatherCatV1.10B1784,2013-02-26 00:58:00,
2013-02-25 20:03:00,31.8,23.8,30.11,East,96,3.0,5.0,72,0.00,,,0.00,WeatherCatV1.10B1784,2013-02-26 01:03:00,
2013-02-25 20:08:00,31.6,23.6,30.10,East,95,5.0,5.0,72,0.00,,,0.00,WeatherCatV1.10B1784,2013-02-26 01:08:00,
2013-02-25 20:13:00,31.4,23.4,30.10,ESE,103,2.0,7.0,72,0.00,,,0.00,WeatherCatV1.10B1784,2013-02-26 01:13:00,
2013-02-25 20:18:00,31.2,23.6,30.10,East,94,6.0,6.0,73,0.00,,,0.00,WeatherCatV1.10B1784,2013-02-26 01:18:00,
2013-02-25 20:23:00,31.2,23.6,30.09,ESE,116,3.0,6.0,73,0.00,,,0.00,WeatherCatV1.10B1784,2013-02-26 01:23:00,
2013-02-25 20:28:00,31.2,23.6,30.09,ESE,107,5.0,8.0,73,0.00,,,0.00,WeatherCatV1.10B1784,2013-02-26 01:28:00,
2013-02-25 20:33:00,31.1,23.8,30.08,East,91,3.0,5.0,74,0.00,,,0.00,WeatherCatV1.10B1784,2013-02-26 01:33:00,
2013-02-25 20:38:00,31.0,23.7,30.08,East,92,6.0,6.0,74,0.00,,,0.00,WeatherCatV1.10B1784,2013-02-26 01:38:00,
2013-02-25 20:43:00,30.8,23.8,30.08,East,96,2.0,6.0,75,0.00,,,0.00,WeatherCatV1.10B1784,2013-02-26 01:43:00,
2013-02-25 20:48:00,30.7,23.7,30.08,ESE,116,1.0,5.0,75,0.00,,,0.00,WeatherCatV1.10B1784,2013-02-26 01:48:00,
2013-02-25 20:53:00,30.6,23.6,30.08,ESE,104,1.0,3.0,75,0.00,,,0.00,WeatherCatV1.10B1784,2013-02-26 01:53:00,
2013-02-25 20:58:00,30.5,23.5,30.08,ESE,110,2.0,5.0,75,0.00,,,0.00,WeatherCatV1.10B1784,2013-02-26 01:58:00,
2013-02-25 21:03:00,30.6,23.6,30.08,ESE,116,2.0,3.0,75,0.00,,,0.00,WeatherCatV1.10B1784,2013-02-26 02:03:00,
2013-02-25 21:08:00,30.5,23.5,30.08,ESE,109,2.0,6.0,75,0.00,,,0.00,WeatherCatV1.10B1784,2013-02-26 02:08:00,
2013-02-25 21:13:00,30.3,23.3,30.07,East,89,6.0,7.0,75,0.00,,,0.00,WeatherCatV1.10B1784,2013-02-26 02:13:00,
2013-02-25 21:18:00,30.1,23.5,30.07,ESE,105,2.0,6.0,76,0.00,,,0.00,WeatherCatV1.10B1784,2013-02-26 02:18:00,
2013-02-25 21:23:00,30.1,23.5,30.07,East,91,5.0,8.0,76,0.00,,,0.00,WeatherCatV1.10B1784,2013-02-26 02:23:00,
2013-02-25 21:28:00,30.0,23.4,30.06,East,95,5.0,6.0,76,0.00,,,0.00,WeatherCatV1.10B1784,2013-02-26 02:28:00,
2013-02-25 21:33:00,29.8,23.2,30.06,ESE,103,5.0,7.0,76,0.00,,,0.00,WeatherCatV1.10B1784,2013-02-26 02:33:00,
2013-02-25 21:38:00,29.9,23.3,30.05,East,91,6.0,8.0,76,0.00,,,0.00,WeatherCatV1.10B1784,2013-02-26 02:38:00,
2013-02-25 21:43:00,29.8,23.5,30.06,ESE,103,3.0,8.0,77,0.00,,,0.00,WeatherCatV1.10B1784,2013-02-26 02:43:00,
2013-02-25 21:48:00,29.8,23.5,30.06,ESE,113,4.0,6.0,77,0.00,,,0.00,WeatherCatV1.10B1784,2013-02-26 02:48:00,
2013-02-25 21:53:00,29.6,23.3,30.06,ESE,117,3.0,7.0,77,0.00,,,0.00,WeatherCatV1.10B1784,2013-02-26 02:53:00,
2013-02-25 21:58:00,29.6,23.3,30.06,East,80,1.0,8.0,77,0.00,,,0.00,WeatherCatV1.10B1784,2013-02-26 02:58:00,
2013-02-25 22:03:00,29.6,23.3,30.06,East,95,5.0,7.0,77,0.00,,,0.00,WeatherCatV1.10B1784,2013-02-26 03:03:00,
2013-02-25 22:09:00,29.6,23.3,30.07,East,97,6.0,6.0,77,0.00,,,0.00,WeatherCatV1.10B1784,2013-02-26 03:09:00,
2013-02-25 22:14:00,29.7,23.4,30.07,ESE,113,2.0,5.0,77,0.00,,,0.00,WeatherCatV1.10B1784,2013-02-26 03:14:00,
2013-02-25 22:19:00,29.7,23.4,30.07,ESE,107,4.0,7.0,77,0.00,,,0.00,WeatherCatV1.10B1784,2013-02-26 03:19:00,
2013-02-25 22:24:00,29.6,23.3,30.07,East,97,3.0,6.0,77,0.00,,,0.00,WeatherCatV1.10B1784,2013-02-26 03:24:00,
2013-02-25 22:29:00,29.7,23.1,30.07,ESE,114,5.0,7.0,76,0.00,,,0.00,WeatherCatV1.10B1784,2013-02-26 03:29:00,
2013-02-25 22:34:00,29.6,23.3,30.08,SE,129,4.0,8.0,77,0.00,,,0.00,WeatherCatV1.10B1784,2013-02-26 03:34:00,
2013-02-25 22:39:00,29.5,23.2,30.08,East,98,2.0,5.0,77,0.00,,,0.00,WeatherCatV1.10B1784,2013-02-26 03:39:00,
2013-02-25 22:44:00,29.5,23.2,30.08,East,101,5.0,7.0,77,0.00,,,0.00,WeatherCatV1.10B1784,2013-02-26 03:44:00,
2013-02-25 22:49:00,29.3,23.0,30.08,East,101,3.0,8.0,77,0.00,,,0.00,WeatherCatV1.10B1784,2013-02-26 03:49:00,
2013-02-25 22:54:00,29.2,22.9,30.09,ESE,119,3.0,5.0,77,0.00,,,0.00,WeatherCatV1.10B1784,2013-02-26 03:54:00,
2013-02-25 22:59:00,29.1,23.1,30.09,SE,125,5.0,8.0,78,0.00,,,0.00,WeatherCatV1.10B1784,2013-02-26 03:59:00,
2013-02-25 23:04:00,29.1,23.1,30.08,East,98,5.0,6.0,78,0.00,,,0.00,WeatherCatV1.10B1784,2013-02-26 04:04:00,
2013-02-25 23:09:00,28.9,22.9,30.08,ESE,112,1.0,5.0,78,0.00,,,0.00,WeatherCatV1.10B1784,2013-02-26 04:09:00,
2013-02-25 23:14:00,28.8,22.8,30.09,ESE,104,4.0,5.0,78,0.00,,,0.00,WeatherCatV1.10B1784,2013-02-26 04:14:00,
2013-02-25 23:19:00,28.7,22.7,30.09,ESE,119,2.0,3.0,78,0.00,,,0.00,WeatherCatV1.10B1784,2013-02-26 04:19:00,
2013-02-25 23:25:00,28.7,22.7,30.09,ESE,111,3.0,4.0,78,0.00,,,0.00,WeatherCatV1.10B1784,2013-02-26 04:25:00,
2013-02-25 23:30:00,28.6,22.6,30.09,East,98,3.0,6.0,78,0.00,,,0.00,WeatherCatV1.10B1784,2013-02-26 04:30:00,
2013-02-25 23:35:00,28.5,22.5,30.09,East,94,2.0,3.0,78,0.00,,,0.00,WeatherCatV1.10B1784,2013-02-26 04:35:00,
2013-02-25 23:40:00,28.4,22.7,30.09,ESE,103,4.0,4.0,79,0.00,,,0.00,WeatherCatV1.10B1784,2013-02-26 04:40:00,
2013-02-25 23:45:00,28.3,22.6,30.08,ESE,116,1.0,4.0,79,0.00,,,0.00,WeatherCatV1.10B1784,2013-02-26 04:45:00,
2013-02-25 23:50:00,28.2,22.5,30.08,ESE,107,1.0,4.0,79,0.00,,,0.00,WeatherCatV1.10B1784,2013-02-26 04:50:00,
2013-02-25 23:55:00,28.1,22.4,30.08,ESE,110,3.0,3.0,79,0.00,,,0.00,WeatherCatV1.10B1784,2013-02-26 04:55:00,